Location: Woodstock
(35.2731°N, 89.9823°W)
Time: 16:36:21
(UTC+00:00)

Vanguard 3 - Pass Details

Date: 23 May 2025
Orbit: 508 x 3215 km, 33.3° (Epoch: 14 June)

Event Time Altitude Azimuth Distance (km) Brightness Sun altitude
Rises 04:54:13 0° 194° (SSW) 6,658 - -32.2°
Reaches altitude 10° 05:02:44 10° 172° (S) 5,039 - -32.6°
Maximum altitude 05:07:54 13° 150° (SSE) 4,333 - -32.9°
Drops below altitude 10° 05:12:17 10° 127° (SE) 4,124 - -33.1°
Sets 05:17:33 0° 101° (E) 4,515 - -33.3°
